AWC5RC EGNM-EKCH

Flight info

Callsign AWC5RC
Flight time 1h 25m
Altitude 37000
Route POL UP18 NATEB P15 GIVEM DCT SURAT DCT PETIL DCT TESPI
Aircraft A21N/M-SDE3FGHIRWY/LB1

Departure

Time 2026-04-26 20:22
Airport Leeds Bradford Airport (EGNM)

Arrival

Time 2026-04-26 21:48
Airport Copenhagen Kastrup Airport (EKCH)
Time Latitude Longitude Altitude Speed Heading
2026-04-26 20:07 53.86878 -1.65550 658 ft 0 kts
2026-04-26 20:14 53.86877 -1.65550 658 ft 0 kts
2026-04-26 20:14 53.86874 -1.65550 658 ft 2 kts
2026-04-26 20:15 53.86859 -1.65546 658 ft 2 kts 336°
2026-04-26 20:15 53.86846 -1.65534 658 ft 2 kts 323°
2026-04-26 20:15 53.86836 -1.65517 658 ft 2 kts 306°
2026-04-26 20:15 53.86829 -1.65494 657 ft 2 kts 288°
2026-04-26 20:16 53.86826 -1.65469 656 ft 2 kts 272°
2026-04-26 20:16 53.86826 -1.65444 654 ft 2 kts 269°
2026-04-26 20:16 53.86826 -1.65419 653 ft 2 kts 271°
2026-04-26 20:16 53.86826 -1.65393 651 ft 2 kts 270°
2026-04-26 20:17 53.86825 -1.65368 650 ft 2 kts 271°
2026-04-26 20:17 53.86825 -1.65343 648 ft 2 kts 270°
2026-04-26 20:17 53.86825 -1.65331 648 ft 0 kts 270°
2026-04-26 20:18 53.86825 -1.65327 647 ft 0 kts 270°
2026-04-26 20:18 53.86805 -1.65406 653 ft 10 kts 207°
2026-04-26 20:19 53.86715 -1.65423 657 ft 21 kts 184°
2026-04-26 20:19 53.86566 -1.65437 662 ft 19 kts 182°
2026-04-26 20:19 53.86441 -1.65451 666 ft 16 kts 183°
2026-04-26 20:19 53.86332 -1.65462 669 ft 15 kts 183°
2026-04-26 20:20 53.86237 -1.65470 673 ft 12 kts 173°
2026-04-26 20:20 53.86164 -1.65399 673 ft 14 kts 139°
2026-04-26 20:20 53.86068 -1.65255 668 ft 20 kts 139°
2026-04-26 20:20 53.85954 -1.65080 659 ft 22 kts 134°
2026-04-26 20:21 53.85893 -1.64952 651 ft 4 kts 205°
2026-04-26 20:21 53.85901 -1.64990 653 ft 6 kts 301°
2026-04-26 20:21 53.85920 -1.65031 656 ft 0 kts 318°
2026-04-26 20:21 53.85946 -1.65071 658 ft 25 kts 317°
2026-04-26 20:22 53.86297 -1.65608 676 ft 107 kts 318°
2026-04-26 20:22 53.87019 -1.66702 728 ft 166 kts 317°
2026-04-26 20:22 53.87889 -1.67981 1489 ft 168 kts 316°
2026-04-26 20:22 53.88736 -1.69265 2342 ft 168 kts 314°
2026-04-26 20:23 53.89353 -1.70939 3009 ft 176 kts 276°
2026-04-26 20:23 53.89065 -1.72972 3584 ft 191 kts 236°
2026-04-26 20:23 53.87987 -1.74361 4166 ft 209 kts 201°
2026-04-26 20:23 53.86549 -1.75088 4712 ft 230 kts 203°
2026-04-26 20:24 53.85274 -1.76829 5247 ft 250 kts 239°
2026-04-26 20:24 53.84524 -1.79533 5997 ft 263 kts 248°
2026-04-26 20:24 53.83779 -1.82395 6991 ft 269 kts 245°
2026-04-26 20:24 53.82964 -1.85169 8004 ft 271 kts 243°
2026-04-26 20:25 53.82066 -1.87974 8989 ft 273 kts 242°
2026-04-26 20:25 53.81448 -1.89832 9619 ft 275 kts 241°
2026-04-26 20:25 53.80235 -1.93587 10803 ft 280 kts 248°
2026-04-26 20:25 53.79781 -1.96835 11317 ft 297 kts 266°
2026-04-26 20:26 53.79990 -2.00410 11787 ft 315 kts 285°
2026-04-26 20:26 53.80942 -2.03846 12179 ft 335 kts 304°
2026-04-26 20:26 53.82654 -2.06671 12565 ft 356 kts 325°
2026-04-26 20:26 53.84959 -2.08274 13168 ft 369 kts 347°
2026-04-26 20:27 53.87517 -2.08279 13966 ft 376 kts
2026-04-26 20:27 53.89960 -2.06741 14751 ft 380 kts 23°
2026-04-26 20:27 53.92458 -2.05178 15443 ft 383 kts 12°
2026-04-26 20:27 53.95034 -2.04256 16148 ft 387 kts 10°
2026-04-26 20:28 53.97685 -2.03344 16834 ft 392 kts
2026-04-26 20:28 54.00363 -2.02463 17511 ft 396 kts
2026-04-26 20:28 54.03073 -2.01601 18180 ft 400 kts
2026-04-26 20:28 54.05806 -2.00745 18832 ft 404 kts
2026-04-26 20:29 54.08567 -1.99884 19455 ft 408 kts
2026-04-26 20:29 54.11354 -1.99022 20056 ft 412 kts
2026-04-26 20:29 54.14168 -1.98160 20637 ft 416 kts
2026-04-26 20:29 54.17029 -1.97281 21214 ft 421 kts
2026-04-26 20:30 54.19920 -1.96386 21781 ft 425 kts
2026-04-26 20:30 54.22809 -1.95492 22321 ft 429 kts
2026-04-26 20:30 54.25775 -1.94572 22859 ft 433 kts
2026-04-26 20:30 54.28733 -1.93655 23383 ft 436 kts
2026-04-26 20:31 54.31709 -1.92727 23888 ft 440 kts
2026-04-26 20:31 54.34732 -1.91783 24393 ft 443 kts
2026-04-26 20:31 54.37740 -1.90844 24879 ft 447 kts
2026-04-26 20:31 54.40799 -1.89885 25364 ft 450 kts
2026-04-26 20:32 54.43869 -1.88925 25807 ft 453 kts
2026-04-26 20:32 54.46995 -1.87946 26232 ft 456 kts
2026-04-26 20:32 54.50093 -1.86974 26644 ft 459 kts
2026-04-26 20:32 54.53246 -1.85983 27021 ft 462 kts
2026-04-26 20:33 54.56402 -1.84988 27456 ft 464 kts
2026-04-26 20:33 54.59539 -1.83997 27979 ft 463 kts
2026-04-26 20:33 54.62735 -1.82985 28523 ft 462 kts
2026-04-26 20:33 54.65872 -1.81989 29022 ft 462 kts
2026-04-26 20:34 54.69010 -1.80992 29485 ft 462 kts
2026-04-26 20:34 54.72174 -1.79988 29918 ft 462 kts
2026-04-26 20:34 54.75337 -1.78984 30356 ft 462 kts
2026-04-26 20:34 54.78453 -1.77991 30821 ft 462 kts
2026-04-26 20:35 54.81608 -1.76982 31305 ft 461 kts
2026-04-26 20:35 54.84768 -1.75969 31765 ft 459 kts
2026-04-26 20:35 54.87865 -1.74979 32233 ft 458 kts
2026-04-26 20:35 54.90984 -1.73979 32673 ft 457 kts
2026-04-26 20:36 54.94073 -1.72923 33078 ft 458 kts
2026-04-26 20:36 54.97100 -1.71181 33438 ft 465 kts 18°
2026-04-26 20:36 54.99984 -1.68584 33797 ft 470 kts 27°
2026-04-26 20:36 55.02624 -1.65182 34157 ft 475 kts 37°
2026-04-26 20:37 55.04917 -1.61098 34473 ft 479 kts 47°
2026-04-26 20:37 55.06836 -1.56344 34779 ft 483 kts 57°
2026-04-26 20:37 55.08319 -1.51042 35045 ft 485 kts 65°
2026-04-26 20:37 55.09549 -1.45584 35331 ft 484 kts 67°
2026-04-26 20:38 55.10710 -1.40168 35604 ft 482 kts 68°
2026-04-26 20:38 55.11901 -1.34653 35826 ft 482 kts 68°
2026-04-26 20:38 55.13083 -1.29275 36028 ft 482 kts 68°
2026-04-26 20:38 55.14294 -1.23835 36196 ft 482 kts 67°
2026-04-26 20:39 55.15512 -1.18388 36368 ft 482 kts 67°
2026-04-26 20:39 55.16735 -1.12923 36530 ft 482 kts 67°
2026-04-26 20:39 55.17933 -1.07555 36737 ft 482 kts 67°
2026-04-26 20:39 55.19161 -1.02048 36945 ft 482 kts 67°
2026-04-26 20:40 55.20371 -0.96610 37153 ft 482 kts 67°
2026-04-26 20:40 55.22778 -0.85727 37223 ft 483 kts 67°
2026-04-26 20:41 55.25188 -0.74760 37221 ft 484 kts 67°
2026-04-26 20:41 55.27580 -0.63809 37233 ft 483 kts 67°
2026-04-26 20:42 55.29962 -0.52866 37234 ft 484 kts 67°
2026-04-26 20:42 55.32344 -0.41874 37232 ft 484 kts 67°
2026-04-26 20:43 55.34715 -0.30856 37249 ft 485 kts 68°
2026-04-26 20:43 55.37085 -0.19785 37247 ft 485 kts 68°
2026-04-26 20:44 55.39442 -0.08709 37258 ft 485 kts 68°
2026-04-26 20:44 55.41791 0.02391 37249 ft 485 kts 68°
2026-04-26 20:45 55.44124 0.13474 37252 ft 484 kts 68°
2026-04-26 20:45 55.46394 0.24539 37251 ft 484 kts 70°
2026-04-26 20:46 55.48230 0.35899 37261 ft 485 kts 73°
2026-04-26 20:46 55.49955 0.47379 37267 ft 484 kts 73°
2026-04-26 20:47 55.51659 0.58761 37267 ft 484 kts 73°
2026-04-26 20:47 55.53383 0.70291 37266 ft 485 kts 74°
2026-04-26 20:48 55.55088 0.81758 37266 ft 486 kts 74°
2026-04-26 20:48 55.56780 0.93222 37265 ft 485 kts 74°
2026-04-26 20:49 55.58464 1.04720 37270 ft 484 kts 74°
2026-04-26 20:49 55.60141 1.16232 37274 ft 484 kts 74°
2026-04-26 20:50 55.61794 1.27668 37279 ft 484 kts 74°
2026-04-26 20:50 55.63450 1.39213 37276 ft 484 kts 73°
2026-04-26 20:51 55.65079 1.50664 37279 ft 483 kts 73°
2026-04-26 20:51 55.66701 1.62149 37284 ft 483 kts 73°
2026-04-26 20:52 55.68325 1.73716 37287 ft 483 kts 75°
2026-04-26 20:52 55.69920 1.85171 37293 ft 483 kts 74°
2026-04-26 20:53 55.71518 1.96737 37296 ft 484 kts 74°
2026-04-26 20:53 55.73099 2.08272 37297 ft 483 kts 74°
2026-04-26 20:54 55.74666 2.19800 37280 ft 483 kts 74°
2026-04-26 20:54 55.76220 2.31305 37295 ft 483 kts 74°
2026-04-26 20:55 55.77765 2.42831 37283 ft 483 kts 74°
2026-04-26 20:55 55.79309 2.54452 37288 ft 483 kts 74°
2026-04-26 20:56 55.80829 2.65982 37302 ft 483 kts 75°
2026-04-26 20:56 55.82350 2.77588 37307 ft 483 kts 75°
2026-04-26 20:57 55.83846 2.89118 37321 ft 483 kts 75°
2026-04-26 20:57 55.85348 3.00787 37318 ft 483 kts 75°
2026-04-26 20:58 55.86830 3.12403 37311 ft 483 kts 75°
2026-04-26 20:58 55.88295 3.23965 37314 ft 483 kts 75°
2026-04-26 20:59 55.89759 3.35629 37326 ft 482 kts 75°
2026-04-26 20:59 55.91116 3.47275 37329 ft 483 kts 78°
2026-04-26 21:00 55.91775 3.59086 37323 ft 485 kts 85°
2026-04-26 21:00 55.92010 3.71027 37333 ft 484 kts 87°
2026-04-26 21:01 55.92222 3.83022 37322 ft 484 kts 86°
2026-04-26 21:01 55.92436 3.94929 37317 ft 484 kts 86°
2026-04-26 21:02 55.92644 4.06854 37322 ft 483 kts 86°
2026-04-26 21:02 55.92844 4.18739 37326 ft 483 kts 86°
2026-04-26 21:03 55.93033 4.30690 37318 ft 485 kts 86°
2026-04-26 21:03 55.93209 4.42619 37316 ft 484 kts 86°
2026-04-26 21:04 55.93373 4.54622 37331 ft 484 kts 86°
2026-04-26 21:04 55.93526 4.66590 37326 ft 484 kts 88°
2026-04-26 21:05 55.93668 4.78519 37330 ft 484 kts 88°
2026-04-26 21:05 55.93796 4.90465 37324 ft 485 kts 88°
2026-04-26 21:06 55.93917 5.02425 37320 ft 484 kts 87°
2026-04-26 21:06 55.94088 5.14348 37326 ft 484 kts 86°
2026-04-26 21:07 55.94257 5.26335 37321 ft 484 kts 86°
2026-04-26 21:07 55.94410 5.38225 37557 ft 483 kts 87°
2026-04-26 21:07 55.94481 5.44221 37428 ft 481 kts 86°
2026-04-26 21:08 55.94546 5.50103 37410 ft 481 kts 86°
2026-04-26 21:08 55.94672 5.62025 37335 ft 480 kts 86°
2026-04-26 21:09 55.94785 5.73863 37319 ft 480 kts 87°
2026-04-26 21:09 55.94888 5.85679 37316 ft 479 kts 87°
2026-04-26 21:10 55.94978 5.97477 37322 ft 478 kts 87°
2026-04-26 21:10 55.95057 6.09324 37113 ft 479 kts 87°
2026-04-26 21:10 55.95093 6.15240 37258 ft 480 kts 87°
2026-04-26 21:11 55.95125 6.21187 37308 ft 480 kts 87°
2026-04-26 21:11 55.95182 6.33038 37334 ft 480 kts 87°
2026-04-26 21:12 55.95226 6.44874 37334 ft 480 kts 87°
2026-04-26 21:12 55.95261 6.56728 37318 ft 479 kts 87°
2026-04-26 21:13 55.95282 6.68553 37331 ft 478 kts 88°
2026-04-26 21:13 55.95294 6.80359 37354 ft 477 kts 88°
2026-04-26 21:14 55.95294 6.92210 37329 ft 477 kts 88°
2026-04-26 21:14 55.95282 7.03950 37322 ft 476 kts 88°
2026-04-26 21:15 55.95260 7.15748 37318 ft 476 kts 88°
2026-04-26 21:15 55.95224 7.27487 37303 ft 477 kts 88°
2026-04-26 21:16 55.95180 7.39281 37292 ft 477 kts 88°
2026-04-26 21:16 55.95123 7.51081 37282 ft 477 kts 87°
2026-04-26 21:17 55.95055 7.62844 37295 ft 477 kts 87°
2026-04-26 21:17 55.94978 7.74598 37280 ft 477 kts 88°
2026-04-26 21:18 55.94887 7.86350 37274 ft 476 kts 88°
2026-04-26 21:18 55.94787 7.98124 37287 ft 475 kts 88°
2026-04-26 21:19 55.94676 8.09851 37295 ft 475 kts 88°
2026-04-26 21:19 55.94550 8.21683 37286 ft 475 kts 88°
2026-04-26 21:20 55.94416 8.33413 37286 ft 476 kts 88°
2026-04-26 21:20 55.94271 8.45134 37284 ft 476 kts 88°
2026-04-26 21:21 55.94114 8.56935 37286 ft 476 kts 88°
2026-04-26 21:21 55.93946 8.68636 37287 ft 476 kts 88°
2026-04-26 21:22 55.93767 8.80444 37282 ft 477 kts 89°
2026-04-26 21:22 55.93575 8.92171 37286 ft 476 kts 88°
2026-04-26 21:23 55.93268 9.09777 37268 ft 475 kts 88°
2026-04-26 21:23 55.93050 9.21515 37266 ft 475 kts 88°
2026-04-26 21:24 55.92822 9.33225 37270 ft 475 kts 88°
2026-04-26 21:24 55.92583 9.44899 37218 ft 473 kts 88°
2026-04-26 21:25 55.92458 9.50783 36644 ft 475 kts 88°
2026-04-26 21:25 55.92333 9.56593 35835 ft 481 kts 88°
2026-04-26 21:25 55.92201 9.62594 34963 ft 487 kts 88°
2026-04-26 21:25 55.92066 9.68576 34143 ft 491 kts 89°
2026-04-26 21:26 55.91926 9.74621 33343 ft 493 kts 89°
2026-04-26 21:26 55.91782 9.80726 32543 ft 494 kts 89°
2026-04-26 21:26 55.91636 9.86790 31768 ft 495 kts 89°
2026-04-26 21:26 55.91486 9.92868 30984 ft 495 kts 89°
2026-04-26 21:27 55.91331 9.99018 30050 ft 496 kts 89°
2026-04-26 21:27 55.91174 10.05118 29076 ft 496 kts 89°
2026-04-26 21:27 55.91014 10.11217 28076 ft 496 kts 89°
2026-04-26 21:27 55.90852 10.17263 27335 ft 491 kts 89°
2026-04-26 21:28 55.90688 10.23258 26728 ft 484 kts 89°
2026-04-26 21:28 55.90524 10.29161 26072 ft 478 kts 89°
2026-04-26 21:28 55.90358 10.35058 25290 ft 476 kts 89°
2026-04-26 21:28 55.90192 10.40868 24605 ft 471 kts 89°
2026-04-26 21:29 55.90024 10.46630 23999 ft 466 kts 89°
2026-04-26 21:29 55.89747 10.52291 23423 ft 462 kts 93°
2026-04-26 21:29 55.89259 10.57924 22850 ft 458 kts 97°
2026-04-26 21:29 55.88621 10.63395 22289 ft 454 kts 99°
2026-04-26 21:30 55.87952 10.68850 21716 ft 450 kts 100°
2026-04-26 21:30 55.87277 10.74280 21136 ft 445 kts 100°
2026-04-26 21:30 55.86618 10.79602 20584 ft 441 kts 99°
2026-04-26 21:30 55.85970 10.84861 20039 ft 436 kts 99°
2026-04-26 21:31 55.85329 10.90064 19485 ft 432 kts 99°
2026-04-26 21:31 55.84650 10.95230 18946 ft 428 kts 101°
2026-04-26 21:31 55.83909 11.00349 18411 ft 424 kts 102°
2026-04-26 21:31 55.83168 11.05365 17886 ft 421 kts 102°
2026-04-26 21:32 55.82425 11.10370 17358 ft 417 kts 102°
2026-04-26 21:32 55.81693 11.15298 16829 ft 414 kts 102°
2026-04-26 21:32 55.80971 11.20153 16347 ft 409 kts 102°
2026-04-26 21:32 55.80248 11.25001 16044 ft 398 kts 102°
2026-04-26 21:33 55.79549 11.29668 15877 ft 384 kts 102°
2026-04-26 21:33 55.78871 11.34175 15700 ft 372 kts 101°
2026-04-26 21:33 55.78223 11.38485 15526 ft 360 kts 101°
2026-04-26 21:33 55.77603 11.42708 15360 ft 348 kts 99°
2026-04-26 21:34 55.77152 11.46877 15083 ft 340 kts 94°
2026-04-26 21:34 55.76819 11.51006 14672 ft 338 kts 93°
2026-04-26 21:34 55.76512 11.55064 14281 ft 335 kts 93°
2026-04-26 21:34 55.76200 11.59169 13891 ft 333 kts 93°
2026-04-26 21:35 55.75887 11.63205 13523 ft 330 kts 93°
2026-04-26 21:35 55.75573 11.67170 13156 ft 327 kts 94°
2026-04-26 21:35 55.75254 11.71160 12786 ft 325 kts 94°
2026-04-26 21:35 55.74937 11.75094 12420 ft 322 kts 94°
2026-04-26 21:36 55.74620 11.79011 12051 ft 319 kts 94°
2026-04-26 21:36 55.74310 11.82845 11697 ft 317 kts 94°
2026-04-26 21:36 55.73998 11.86676 11337 ft 314 kts 95°
2026-04-26 21:36 55.73687 11.90489 10979 ft 312 kts 95°
2026-04-26 21:37 55.73373 11.94292 10619 ft 309 kts 95°
2026-04-26 21:37 55.73065 11.98024 10265 ft 307 kts 95°
2026-04-26 21:37 55.72757 12.01754 9914 ft 304 kts 95°
2026-04-26 21:37 55.72451 12.05444 9553 ft 302 kts 95°
2026-04-26 21:38 55.72148 12.09082 9203 ft 300 kts 95°
2026-04-26 21:38 55.71843 12.12727 8856 ft 298 kts 95°
2026-04-26 21:38 55.71539 12.16338 8514 ft 295 kts 95°
2026-04-26 21:38 55.71239 12.19898 8173 ft 293 kts 95°
2026-04-26 21:39 55.70737 12.23349 7809 ft 294 kts 114°
2026-04-26 21:39 55.69497 12.26189 7477 ft 292 kts 137°
2026-04-26 21:39 55.67947 12.28510 7153 ft 289 kts 141°
2026-04-26 21:39 55.66412 12.30724 6824 ft 287 kts 141°
2026-04-26 21:40 55.64875 12.32969 6488 ft 284 kts 140°
2026-04-26 21:40 55.63389 12.35180 6159 ft 282 kts 140°
2026-04-26 21:40 55.61867 12.37376 5815 ft 279 kts 147°
2026-04-26 21:40 55.60091 12.38442 5461 ft 272 kts 181°
2026-04-26 21:41 55.58302 12.37657 5124 ft 262 kts 212°
2026-04-26 21:41 55.56919 12.35708 4839 ft 254 kts 225°
2026-04-26 21:41 55.55650 12.33634 4605 ft 247 kts 225°
2026-04-26 21:41 55.54382 12.31600 4345 ft 243 kts 224°
2026-04-26 21:42 55.53148 12.29666 4126 ft 236 kts 223°
2026-04-26 21:42 55.51736 12.28269 3909 ft 234 kts 192°
2026-04-26 21:42 55.50188 12.28638 3815 ft 226 kts 155°
2026-04-26 21:42 55.49022 12.30437 3562 ft 224 kts 121°
2026-04-26 21:43 55.48567 12.32958 3427 ft 216 kts 98°
2026-04-26 21:43 55.48358 12.35599 3351 ft 216 kts 97°
2026-04-26 21:43 55.48152 12.38199 3225 ft 215 kts 98°
2026-04-26 21:43 55.47936 12.40791 3081 ft 214 kts 96°
2026-04-26 21:44 55.48197 12.43308 2944 ft 210 kts 62°
2026-04-26 21:44 55.49105 12.45157 2726 ft 192 kts 38°
2026-04-26 21:44 55.50157 12.46550 2455 ft 188 kts 33°
2026-04-26 21:44 55.51191 12.47948 2183 ft 187 kts 36°
2026-04-26 21:45 55.52176 12.49410 1911 ft 181 kts 39°
2026-04-26 21:45 55.53084 12.50824 1653 ft 166 kts 40°
2026-04-26 21:45 55.53909 12.52117 1415 ft 151 kts 40°
2026-04-26 21:45 55.54675 12.53309 1227 ft 148 kts 40°
2026-04-26 21:46 55.55454 12.54516 1041 ft 147 kts 40°
2026-04-26 21:46 55.56220 12.55708 868 ft 146 kts 41°
2026-04-26 21:46 55.56975 12.56893 655 ft 146 kts 41°
2026-04-26 21:46 55.57734 12.58061 452 ft 144 kts 41°
2026-04-26 21:47 55.58486 12.59226 254 ft 143 kts 41°
2026-04-26 21:47 55.59235 12.60384 65 ft 142 kts 42°
2026-04-26 21:47 55.59945 12.61479 12 ft 120 kts 41°
2026-04-26 21:47 55.60438 12.62240 15 ft 71 kts 40°
2026-04-26 21:48 55.60698 12.62645 19 ft 38 kts 41°